Flag for United Kingdom Weather past 2 weeks in Glasgow, Scotland, United Kingdom

Now
52 °F

Passing clouds.


Feels Like: 52 °F
Forecast: 46 / 62 °F
Wind: 2 mph from North

Location: Glasgow Airport

Current Time: Sep 5, 2015 at 2:22:24 AM

Latest Report: Sep 5, 2015 at 1:50 AM


Visibility: N/A

Pressure: 30.15 "Hg

Humidity: 82%

Dew point: 46 °F

Location of GlasgowLocation

Historic Weather in Glasgow — Graph

°F

Glasgow temperature yesterday

Maximum temperature yesterday: 61 °F (at 5:20 PM)
Minimum temperature yesterday: 46 °F (at 6:50 AM)
Average temperature yesterday: 53 °F

Past Weeks' High & Low Weather Summary

 TemperatureHumidityPressure
High77 °F (Aug 23, 2:20 PM)100% (Aug 23, 3:20 AM)30.12 "Hg (Aug 23, 3:20 AM)
Low43 °F (Aug 31, 5:50 AM)44% (Aug 23, 3:20 PM)29.27 "Hg (Aug 26, 10:50 AM)
Average57 °F81%29.82 "Hg
* Reported Aug 21 1:20 AM — Sep 5 1:20 AM, Glasgow, Weather by CustomWeather, © 2015

Note: Actual official high and low records may vary slightly from our data, if they occured in-between our weather recording intervals... More about our weather records

Advertising

Glasgow weather history for previous 24 hours

 ConditionsComfort  
Time TempWeatherWind HumidityBarometerVisibility
1:20 AM
Sat, Sep 5
52 °FPassing clouds.3 mph82%30.12 "HgN/A
12:50 AM50 °FPassing clouds.3 mph88%30.12 "HgN/A
12:20 AM52 °FOvercast.3 mph82%30.12 "HgN/A
11:50 PM
Fri, Sep 4
50 °FPassing clouds.5 mph88%30.12 "HgN/A
11:20 PM54 °FPassing clouds.5 mph77%30.09 "HgN/A
10:20 PM52 °FCool.9 mph82%30.09 "HgN/A
9:50 PM50 °FClear.7 mph88%30.07 "Hg10 mi
9:20 PM52 °FPassing clouds.8 mph88%30.07 "HgN/A
8:50 PM55 °FScattered clouds.7 mph77%30.07 "HgN/A
8:20 PM54 °FScattered clouds.7 mph82%30.07 "HgN/A
7:50 PM55 °FScattered clouds.9 mph77%30.04 "HgN/A
7:20 PM57 °FScattered clouds.10 mph82%30.04 "HgN/A
6:50 PM59 °FScattered showers. Partly sunny.8 mph82%30.04 "HgN/A
6:20 PM59 °FScattered showers. Broken clouds.12 mph77%30.04 "HgN/A
5:50 PM59 °FScattered showers. Partly sunny.10 mph77%30.04 "HgN/A
5:20 PM61 °FPartly sunny.10 mph72%30.04 "HgN/A
4:50 PM59 °FPartly sunny.13 mph77%30.07 "HgN/A
4:20 PM59 °FPartly sunny.8 mph82%30.07 "HgN/A
3:50 PM59 °FPartly sunny.8 mph77%30.07 "HgN/A
3:20 PM59 °FPartly sunny.9 mph77%30.09 "HgN/A
2:50 PM59 °FScattered clouds.10 mph77%30.09 "HgN/A
2:20 PM57 °FPassing clouds.16 mph77%30.09 "HgN/A
1:50 PM57 °FPassing clouds.10 mph77%30.09 "HgN/A
1:20 PM57 °FPassing clouds.10 mph72%30.09 "HgN/A
12:50 PM55 °FSunny.8 mph77%30.09 "Hg10 mi
12:20 PM54 °FLight rain. Passing clouds.8 mph82%30.09 "HgN/A
11:50 AM54 °FLight rain. Passing clouds.8 mph77%30.12 "HgN/A
11:20 AM54 °FLight rain. Passing clouds.12 mph77%30.12 "HgN/A
10:50 AM55 °FSunny.12 mph72%30.12 "Hg10 mi
10:20 AM55 °FPassing clouds.9 mph72%30.12 "HgN/A
9:50 AM52 °FSunny.9 mph82%30.12 "Hg10 mi
9:20 AM52 °FPassing clouds.8 mph82%30.09 "HgN/A
8:50 AM50 °FPassing clouds.5 mph82%30.09 "HgN/A
8:20 AM50 °FSunny.7 mph82%30.09 "Hg10 mi
7:50 AM48 °FPassing clouds.6 mph87%30.09 "HgN/A
7:20 AM46 °FClear.6 mph93%30.09 "Hg10 mi
6:50 AM46 °FPassing clouds.5 mph87%30.07 "HgN/A
6:20 AM48 °FPassing clouds.7 mph82%30.09 "HgN/A
5:50 AM48 °FClear.9 mph82%30.07 "Hg10 mi
5:20 AM48 °FClear.10 mph87%30.07 "Hg10 mi
4:50 AM48 °FClear.9 mph87%30.07 "Hg10 mi
4:20 AM48 °FClear.9 mph87%30.07 "Hg10 mi
3:50 AM48 °FClear.8 mph87%30.07 "Hg10 mi
3:20 AM48 °FPassing clouds.9 mph87%30.07 "HgN/A
2:50 AM48 °FCool.8 mph87%30.07 "HgN/A
2:20 AM50 °FClear.7 mph82%30.07 "Hg10 mi
Weather by CustomWeather, © 2015

See weather overviewHow to use our weather pages